When you browse on this site, cookies collect data to enhance your experience and personalize the content and advertising you see.
Visit our Privacy Policy to learn more. By continuing to use the site, you agree to this use of cookies and data.
  • In United Kingdom
  • List of Countries
  • For 7 days
  • Water Temperature
  • Satellite Maps
  • Weather Map
  • Weather Widgets
  • user-avatar
    Login

    Hourly Weather Siguiri

    Today, 26 April, Friday

    Time Temperature Precipitation Wind Pressure Humidity
    00:00 +32°C° 0 mm 1 mps 715 mmHg 9%
    01:00 +32°C° 0 mm 2 mps 715 mmHg 9%
    02:00 +31°C° 0 mm 1 mps 715 mmHg 9%
    03:00 +30°C° 0 mm 1 mps 714 mmHg 9%
    04:00 +29°C° 0 mm 1 mps 714 mmHg 8%
    05:00 +29°C° 0 mm 1 mps 714 mmHg 8%
    06:00 +29°C° 0 mm 1 mps 715 mmHg 9%
    07:00 +29°C° 0 mm 1 mps 715 mmHg 9%
    08:00 +32°C° 0 mm 2 mps 715 mmHg 7%
    09:00 +36°C° 0 mm 3 mps 716 mmHg 6%
    10:00 +40°C° 0 mm 5 mps 716 mmHg 4%
    11:00 +41°C° 0 mm 5 mps 716 mmHg 4%
    12:00 +43°C° 0 mm 5 mps 716 mmHg 4%
    13:00 +45°C° 0 mm 6 mps 715 mmHg 4%
    14:00 +45°C° 0 mm 6 mps 714 mmHg 4%
    15:00 +45°C° 0 mm 6 mps 713 mmHg 5%
    16:00 +46°C° 0 mm 5 mps 713 mmHg 5%
    17:00 +43°C° 0 mm 4 mps 713 mmHg 6%
    18:00 +40°C° 0 mm 3 mps 713 mmHg 6%
    19:00 +38°C° 0 mm 2 mps 713 mmHg 7%
    20:00 +37°C° 0 mm 2 mps 713 mmHg 7%
    21:00 +36°C° 0 mm 3 mps 714 mmHg 7%
    22:00 +35°C° 0 mm 3 mps 714 mmHg 7%
    23:00 +34°C° 0 mm 2 mps 714 mmHg 7%

    Tomorrow, 27 April, Saturday

    Time Temperature Precipitation Wind Pressure Humidity
    00:00 +34°C° 0 mm 2 mps 714 mmHg 8%
    01:00 +32°C° 0 mm 2 mps 714 mmHg 8%
    02:00 +31°C° 0 mm 2 mps 713 mmHg 8%
    03:00 +30°C° 0 mm 1 mps 713 mmHg 8%
    04:00 +30°C° 0 mm 1 mps 713 mmHg 8%
    05:00 +30°C° 0 mm 1 mps 713 mmHg 8%
    06:00 +30°C° 0 mm 1 mps 713 mmHg 8%
    07:00 +30°C° 0 mm 1 mps 713 mmHg 8%
    08:00 +34°C° 0 mm 2 mps 714 mmHg 7%
    09:00 +37°C° 0 mm 2 mps 715 mmHg 6%
    10:00 +39°C° 0 mm 3 mps 715 mmHg 5%
    11:00 +42°C° 0 mm 3 mps 715 mmHg 5%
    12:00 +43°C° 0 mm 4 mps 714 mmHg 4%
    13:00 +45°C° 0 mm 4 mps 714 mmHg 4%
    14:00 +45°C° 0 mm 4 mps 713 mmHg 4%
    15:00 +45°C° 0 mm 4 mps 712 mmHg 4%
    16:00 +45°C° 0 mm 4 mps 712 mmHg 4%
    17:00 +43°C° 0 mm 3 mps 712 mmHg 4%
    18:00 +40°C° 0 mm 3 mps 712 mmHg 5%
    19:00 +38°C° 0 mm 2 mps 712 mmHg 6%
    20:00 +37°C° 0 mm 2 mps 713 mmHg 6%
    21:00 +36°C° 0 mm 2 mps 713 mmHg 6%
    22:00 +35°C° 0 mm 2 mps 714 mmHg 7%
    23:00 +34°C° 0 mm 2 mps 714 mmHg 7%

    Day after tomorrow, 28 April, Sunday

    Time Temperature Precipitation Wind Pressure Humidity
    00:00 +32°C° 0 mm 2 mps 714 mmHg 8%
    01:00 +32°C° 0 mm 2 mps 713 mmHg 8%
    02:00 +31°C° 0 mm 2 mps 713 mmHg 9%
    03:00 +30°C° 0 mm 2 mps 713 mmHg 9%
    04:00 +30°C° 0 mm 2 mps 712 mmHg 10%
    05:00 +29°C° 0 mm 2 mps 713 mmHg 21%
    06:00 +29°C° 0 mm 2 mps 713 mmHg 32%
    07:00 +29°C° 0 mm 2 mps 713 mmHg 43%
    08:00 +32°C° 0 mm 2 mps 714 mmHg 37%
    09:00 +35°C° 0 mm 2 mps 715 mmHg 31%
    10:00 +37°C° 0 mm 1 mps 715 mmHg 25%
    11:00 +40°C° 0 mm 2 mps 715 mmHg 19%
    12:00 +41°C° 0 mm 2 mps 715 mmHg 13%
    13:00 +44°C° 0 mm 3 mps 714 mmHg 7%
    14:00 +44°C° 0 mm 3 mps 713 mmHg 6%
    15:00 +44°C° 0 mm 3 mps 713 mmHg 5%
    16:00 +44°C° 0 mm 3 mps 712 mmHg 4%
    17:00 +41°C° 0 mm 2 mps 712 mmHg 4%
    18:00 +39°C° 0 mm 2 mps 712 mmHg 5%
    19:00 +38°C° 0 mm 2 mps 712 mmHg 5%
    20:00 +36°C° 0 mm 1 mps 713 mmHg 6%
    21:00 +35°C° 0 mm 1 mps 713 mmHg 6%
    22:00 +34°C° 0 mm 1 mps 714 mmHg 7%
    23:00 +33°C° 0 mm 1 mps 714 mmHg 7%

    29 April, Monday

    Time Temperature Precipitation Wind Pressure Humidity
    00:00 +33°C° 0 mm 1 mps 713 mmHg 8%
    01:00 +32°C° 0 mm 1 mps 713 mmHg 8%
    02:00 +32°C° 0 mm 2 mps 713 mmHg 14%
    03:00 +31°C° 0 mm 2 mps 712 mmHg 21%
    04:00 +30°C° 0 mm 3 mps 712 mmHg 27%
    05:00 +30°C° 0 mm 3 mps 713 mmHg 35%
    06:00 +30°C° 0 mm 3 mps 713 mmHg 43%
    07:00 +30°C° 0 mm 3 mps 714 mmHg 51%
    08:00 +33°C° 0 mm 3 mps 714 mmHg 46%
    09:00 +36°C° 0 mm 4 mps 715 mmHg 40%
    10:00 +39°C° 0 mm 5 mps 716 mmHg 35%
    11:00 +41°C° 0 mm 4 mps 715 mmHg 28%
    12:00 +43°C° 0 mm 3 mps 715 mmHg 20%
    13:00 +43°C° 0 mm 2 mps 714 mmHg 13%
    14:00 +43°C° 0 mm 2 mps 714 mmHg 12%
    15:00 +45°C° 0 mm 2 mps 713 mmHg 11%
    16:00 +45°C° 0 mm 3 mps 712 mmHg 10%
    17:00 +43°C° 0 mm 2 mps 712 mmHg 11%
    18:00 +41°C° 0 mm 2 mps 713 mmHg 12%
    19:00 +40°C° 0 mm 2 mps 713 mmHg 13%
    20:00 +39°C° 0 mm 2 mps 713 mmHg 14%
    21:00 +36°C° 0 mm 1 mps 714 mmHg 14%
    22:00 +35°C° 0 mm 1 mps 714 mmHg 15%
    23:00 +35°C° 0 mm 1 mps 714 mmHg 18%

    30 April, Tuesday

    Time Temperature Precipitation Wind Pressure Humidity
    00:00 +35°C° 0 mm 2 mps 713 mmHg 20%
    01:00 +34°C° 0 mm 2 mps 713 mmHg 23%
    02:00 +32°C° 0 mm 2 mps 713 mmHg 28%
    03:00 +32°C° 0 mm 2 mps 713 mmHg 34%
    04:00 +31°C° 0 mm 2 mps 713 mmHg 40%
    05:00 +31°C° 0 mm 3 mps 713 mmHg 42%
    06:00 +31°C° 0 mm 3 mps 714 mmHg 44%
    07:00 +31°C° 0 mm 3 mps 714 mmHg 45%
    08:00 +34°C° 0 mm 4 mps 715 mmHg 42%
    09:00 +37°C° 0 mm 4 mps 715 mmHg 39%
    10:00 +40°C° 0 mm 5 mps 716 mmHg 36%
    11:00 +41°C° 0 mm 4 mps 715 mmHg 28%
    12:00 +43°C° 0 mm 3 mps 715 mmHg 21%
    13:00 +45°C° 0 mm 2 mps 714 mmHg 14%
    14:00 +45°C° 0 mm 3 mps 713 mmHg 13%
    15:00 +45°C° 0 mm 3 mps 713 mmHg 11%
    16:00 +47°C° 0 mm 4 mps 712 mmHg 10%
    17:00 +44°C° 0 mm 3 mps 712 mmHg 11%
    18:00 +41°C° 0 mm 2 mps 712 mmHg 12%
    19:00 +40°C° 0 mm 2 mps 712 mmHg 14%
    20:00 +39°C° 0 mm 1 mps 713 mmHg 14%
    21:00 +37°C° 0 mm 1 mps 713 mmHg 15%
    22:00 +36°C° 0 mm 1 mps 713 mmHg 16%
    23:00 +35°C° 0 mm 1 mps 713 mmHg 18%

    1 May, Wednesday

    Time Temperature Precipitation Wind Pressure Humidity
    00:00 +35°C° 0 mm 2 mps 712 mmHg 20%
    01:00 +35°C° 0 mm 3 mps 712 mmHg 23%
    02:00 +34°C° 0 mm 3 mps 712 mmHg 31%
    03:00 +34°C° 0 mm 4 mps 712 mmHg 40%
    04:00 +33°C° 0 mm 5 mps 712 mmHg 49%
    05:00 +33°C° 0 mm 5 mps 713 mmHg 53%
    06:00 +33°C° 0 mm 6 mps 713 mmHg 57%
    07:00 +32°C° 0 mm 6 mps 713 mmHg 61%
    08:00 +34°C° 0 mm 6 mps 714 mmHg 55%
    09:00 +36°C° 0 mm 6 mps 714 mmHg 49%
    10:00 +39°C° 0 mm 6 mps 715 mmHg 43%
    11:00 +41°C° 0 mm 5 mps 714 mmHg 35%
    12:00 +43°C° 0 mm 4 mps 714 mmHg 27%
    13:00 +45°C° 0 mm 3 mps 713 mmHg 19%
    14:00 +44°C° 0 mm 4 mps 713 mmHg 19%
    15:00 +44°C° 0 mm 4 mps 712 mmHg 19%
    16:00 +43°C° 0 mm 4 mps 711 mmHg 19%
    17:00 +42°C° 0 mm 3 mps 711 mmHg 21%
    18:00 +41°C° 0 mm 2 mps 712 mmHg 22%
    19:00 +40°C° 0 mm 2 mps 712 mmHg 24%
    20:00 +39°C° 0 mm 2 mps 712 mmHg 26%
    21:00 +38°C° 0 mm 3 mps 712 mmHg 28%
    22:00 +37°C° 0 mm 4 mps 713 mmHg 30%
    23:00 +36°C° 0 mm 3 mps 712 mmHg 33%
    Show more